Regional Weather Roundup
Issued by NWS Kansas City/Pleasant Hill, MO

Home | Current Version | Previous Version | Graphics & Text | Print | Product List | Glossary Off
Versions: 1 2 3 4 5 6 7 8 9 10 11 12 13 14 15 16 17 18 19 20 21 22 23 24 25 26 27 28 29 30 31 32 33 34 35 36 37 38 39 40 41 42 43 44 45 46 47 48 49 50

000
ASUS43 KEAX 221810
RWREAX

WEATHER ROUNDUP FOR EASTERN KANSAS AND NORTHWEST MISSOURI
NATIONAL WEATHER SERVICE KANSAS CITY/PLEASANT HILL MO
1200 PM CST SUN JAN 22 2017

KSZ040-057-103>105-MOZ028-029-037-043-221900-
...KANSAS CITY METROPOLITAN AREA...

CITY           SKY/WX    TMP DP  RH WIND       PRES   REMARKS
K.C. INTL      CLOUDY    35  30  82 N14       29.72R WCI  26
6HR MIN TEMP:  35; 6HR MAX TEMP:  44;

K.C. DOWNTOWN  CLOUDY    43  36  76 NW14      29.71S
6HR MIN TEMP:  43; 6HR MAX TEMP:  46;

LEES SUMMIT    CLOUDY    43  38  82 N15       29.69S
6HR MIN TEMP:  43; 6HR MAX TEMP:  44; 6HR PCP:  0.03;

OLATHE - IXD   CLOUDY    43  37  79 NW15      29.71S
6HR MIN TEMP:  43; 6HR MAX TEMP:  45; 6HR PCP: TRACE;

OLATHE - OJC   CLOUDY    43  38  82 N14       29.69F
6HR MIN TEMP:  43; 6HR MAX TEMP:  45;

LAWRENCE       PTSUNNY   37  33  85 NW21      29.75R FOG     WCI  26

$$

MOZ001>008-011>017-020>025-030>033-038>040-044>046-053-054-221900-
...NORTHERN AND CENTRAL MISSOURI...

CITY           SKY/WX    TMP DP  RH WIND       PRES   REMARKS
ST. JOSEPH     CLOUDY    34  32  92 N15       29.77S WCI  24
6HR MIN TEMP:  32; 6HR MAX TEMP:  38;

MOSBY          CLOUDY    37  34  87 NW14      29.72S WCI  29
WARRENSBURG    DRIZZLE   45  43  93 N12G17    29.65S
WHITEMAN AFB   LGT RAIN  45  45 100 N15       29.63F FOG
6HR MIN TEMP:  44; 6HR MAX TEMP:  45; 6HR PCP:  0.16;

CLINTON        LGT RAIN  46  45  93 N13       29.64S
SEDALIA        LGT RAIN  46  43  89 N16       29.63F FOG
6HR MIN TEMP:  45; 6HR MAX TEMP:  47; 6HR PCP:  0.23;

WARSAW         NOT AVBL
CHILLICOTHE      N/A     34  33  96 N9        29.72F WCI  27
6HR MIN TEMP:  34; 6HR MAX TEMP:  40;

KIRKSVILLE     MIX PCPN  36  36 100 N12       29.68F VSB 3/4 WCI  28
6HR MIN TEMP:  36; 6HR MAX TEMP:  40; 6HR PCP:  0.05;


$$

MOZ041-047>049-056>058-063>065-088>090-097-221900-
...EASTERN AND SOUTHERN MISSOURI...

CITY           SKY/WX    TMP DP  RH WIND       PRES   REMARKS
ST. LOUIS INTL CLOUDY    50  44  80 N15       29.51F
6HR MIN TEMP:  48; 6HR MAX TEMP:  51;

SPIRIT OF STL  CLOUDY    50  45  83 N10       29.52F HAZE
COLUMBIA       CLOUDY    47  40  76 N18       29.58F
JEFFERSON CITY CLOUDY    49  37  63 N12G24    29.57F
ROLLA          CLOUDY    45  45 100 N15       29.50F FOG
OSAGE BEACH    LGT RAIN  45  42  89 N7        29.57S
SPRINGFIELD    LGT RAIN  48  46  93 N18G28    29.53R
BRANSON        CLOUDY    48  48 100 N15G21    29.46S FOG
JOPLIN         LGT RAIN  45  44  97 N21G31    29.61R FOG
WEST PLAINS    RAIN      52  50  93 N10       29.45S FOG

$$

IAZ060-094-KSZ022-034>040-054-083-096-NEZ052-066-093-221900-
...KANSAS...SOUTHEAST NEBRASKA AND IOWA...

CITY           SKY/WX    TMP DP  RH WIND       PRES   REMARKS
TOPEKA         CLOUDY    37  32  82 N13       29.77R WCI  29
6HR MIN TEMP:  37; 6HR MAX TEMP:  46;

MANHATTAN      SUNNY     44  32  62 N12G21    29.79S
EMPORIA        SUNNY     49  33  54 N15G22    29.72F
CHANUTE        PTSUNNY   48  43  82 N17G24    29.68R
WICHITA        MOSUNNY   49  34  56 N22       29.77S
OMAHA          CLOUDY    36  30  79 NW13      29.79F WCI  27
LINCOLN        CLOUDY    37  31  78 NW15      29.83S WCI  28
FALLS CITY     CLOUDY    34  31  88 N9        29.78S WCI  27
LAMONI         CLOUDY    36  34  92 N12       29.71F WCI  28
DES MOINES     CLOUDY    37  34  89 NW10      29.72F FOG     WCI  30

$$




USA.gov is the U.S. government's official web portal to all federal, state and local government web resources and services.